| time (UTC) | temp C | wind direction | speed KPH | gust KPH | rain 1hr cm | rain 24hr cm | rain mn cm | humidity % | barometer mb |
| 20260507020724 | 5 | 235 | 0.0 | 0.0 | 0.00 | 1.40 | 1.22 | 90 | 1013.2 |
| 20260507014823 | 5 | 301 | 3.2 | 6.4 | 0.00 | 1.45 | 1.22 | 89 | 1013.2 |
| 20260507013824 | 5 | 282 | 3.2 | 6.4 | 0.00 | 1.45 | 1.22 | 88 | 1013.2 |
| 20260507011824 | 6 | 285 | 1.6 | 4.8 | 0.00 | 1.55 | 1.22 | 89 | 1012.9 |
| 20260507010825 | 6 | 247 | 0.0 | 0.0 | 0.00 | 1.60 | 1.22 | 90 | 1012.9 |
| 20260507005824 | 6 | 276 | 1.6 | 6.4 | 0.00 | 1.63 | 1.22 | 91 | 1012.9 |
| 20260507004827 | 6 | 225 | 0.0 | 0.0 | 0.00 | 1.68 | 1.22 | 89 | 1012.6 |
| 20260507003924 | 6 | 192 | 1.6 | 3.2 | 0.00 | 1.68 | 1.22 | 90 | 1012.3 |
| 20260507002925 | 6 | 202 | 0.0 | 3.2 | 0.00 | 1.68 | 1.22 | 90 | 1012.2 |
| 20260507002823 | 6 | 202 | 0.0 | 0.0 | 0.00 | 1.68 | 1.22 | 89 | 1012.2 |
| 20260507001826 | 6 | 278 | 0.0 | 0.0 | 0.00 | 1.70 | 1.22 | 89 | 1012.3 |
| 20260507000826 | 6 | 232 | 0.0 | 3.2 | 0.00 | 1.70 | 1.22 | 89 | 1012.3 |
| 20260506235825 | 6 | 221 | 0.0 | 3.2 | 0.00 | 1.73 | 1.22 | 88 | 1012.2 |
| 20260506234923 | 6 | 247 | 1.6 | 3.2 | 0.00 | 1.78 | 1.22 | 87 | 1012.2 |
| 20260506233925 | 6 | 247 | 0.0 | 3.2 | 0.00 | 1.80 | 1.22 | 86 | 1011.9 |
| 20260506231924 | 6 | 171 | 0.0 | 3.2 | 0.00 | 1.91 | 1.22 | 85 | 1011.9 |
| 20260506225924 | 6 | 292 | 0.0 | 1.6 | 0.00 | 1.91 | 1.22 | 82 | 1011.5 |
| 20260506225023 | 7 | 292 | 0.0 | 0.0 | 0.00 | 1.91 | 1.22 | 83 | 1011.5 |
| 20260506223025 | 7 | 209 | 0.0 | 0.0 | 0.00 | 1.91 | 1.22 | 82 | 1011.9 |
| 20260506222025 | 6 | 292 | 0.0 | 0.0 | 0.00 | 1.91 | 1.22 | 81 | 1011.9 |
| 20260506221024 | 7 | 276 | 1.6 | 4.8 | 0.00 | 1.91 | 1.22 | 83 | 1011.5 |
| 20260506220023 | 7 | 337 | 1.6 | 3.2 | 0.00 | 1.91 | 1.22 | 83 | 1011.5 |
| 20260506214024 | 7 | 304 | 1.6 | 4.8 | 0.00 | 1.91 | 1.22 | 83 | 1011.5 |
| 20260506213024 | 7 | 296 | 0.0 | 3.2 | 0.00 | 1.91 | 1.22 | 82 | 1011.5 |
| 20260506212024 | 7 | 311 | 1.6 | 6.4 | 0.00 | 1.91 | 1.22 | 84 | 1011.5 |
| 20260506211024 | 7 | 329 | 0.0 | 3.2 | 0.00 | 1.91 | 1.22 | 83 | 1011.5 |
| 20260506205023 | 7 | 302 | 4.8 | 8.0 | 0.00 | 1.91 | 1.22 | 86 | 1011.5 |
| 20260506204025 | 7 | 314 | 0.0 | 4.8 | 0.00 | 1.91 | 1.22 | 87 | 1011.6 |
| 20260506203026 | 7 | 299 | 1.6 | 3.2 | 0.00 | 1.91 | 1.22 | 86 | 1011.5 |
| 20260506201025 | 7 | 335 | 1.6 | 6.4 | 0.00 | 1.91 | 1.22 | 87 | 1011.2 |
| 20260506200025 | 7 | 309 | 0.0 | 3.2 | 0.00 | 1.91 | 1.22 | 89 | 1011.2 |
| 20260506195024 | 7 | 339 | 1.6 | 6.4 | 0.00 | 1.91 | 1.22 | 89 | 1011.2 |
| 20260506192123 | 7 | 312 | 0.0 | 8.0 | 0.00 | 1.91 | 1.22 | 92 | 1011.2 |
| 20260506191124 | 7 | 305 | 1.6 | 6.4 | 0.00 | 1.91 | 1.22 | 92 | 1011.2 |
| 20260506190124 | 6 | 302 | 3.2 | 6.4 | 0.00 | 1.91 | 1.22 | 93 | 1010.9 |
| 20260506184224 | 7 | 289 | 0.0 | 3.2 | 0.00 | 1.91 | 1.22 | 93 | 1011.2 |
| 20260506183223 | 7 | 277 | 1.6 | 6.4 | 0.00 | 1.91 | 1.22 | 93 | 1011.2 |
| 20260506181225 | 7 | 297 | 8.0 | 14.5 | 0.00 | 1.91 | 1.22 | 93 | 1010.9 |
| 20260506180226 | 8 | 296 | 3.2 | 9.7 | 0.00 | 1.91 | 1.22 | 94 | 1010.5 |
| 20260506175324 | 7 | 306 | 0.0 | 3.2 | 0.00 | 1.91 | 1.22 | 93 | 1010.5 |
| 20260506174424 | 7 | 355 | 3.2 | 8.0 | 0.00 | 1.91 | 1.22 | 95 | 1010.4 |
| 20260506173425 | 7 | 294 | 1.6 | 4.8 | 0.00 | 1.91 | 1.22 | 95 | 1010.5 |
| 20260506172424 | 7 | 336 | 3.2 | 11.3 | 0.00 | 1.91 | 1.22 | 96 | 1010.5 |
| 20260506170623 | 7 | 333 | 3.2 | 6.4 | 0.00 | 1.91 | 1.22 | 96 | 1010.5 |
| 20260506165625 | 8 | 12 | 1.6 | 4.8 | 0.00 | 1.91 | 1.22 | 97 | 1010.2 |
| 20260506164724 | 7 | 345 | 4.8 | 12.9 | 0.00 | 1.91 | 1.22 | 97 | 1010.2 |
| 20260506163723 | 7 | 329 | 0.0 | 4.8 | 0.00 | 1.91 | 1.22 | 96 | 1009.8 |
| 20260506161724 | 7 | 336 | 6.4 | 19.3 | 0.00 | 1.91 | 1.22 | 97 | 1010.2 |
| 20260506160725 | 7 | 14 | 1.6 | 11.3 | 0.00 | 1.91 | 1.22 | 97 | 1010.4 |
| 20260506155823 | 7 | 340 | 4.8 | 11.3 | 0.00 | 1.91 | 1.22 | 97 | 1010.2 |
| 20260506153923 | 6 | 353 | 4.8 | 9.7 | 0.00 | 1.91 | 1.22 | 96 | 1010.5 |
| 20260506152926 | 7 | 27 | 3.2 | 11.3 | 0.00 | 1.91 | 1.22 | 96 | 1010.5 |
| 20260506152823 | 6 | 2 | 6.4 | 11.3 | 0.00 | 1.91 | 1.22 | 95 | 1010.5 |
| 20260506151826 | 7 | 352 | 6.4 | 8.0 | 0.00 | 1.91 | 1.22 | 96 | 1010.2 |
| 20260506145925 | 7 | 270 | 0.0 | 1.6 | 0.03 | 1.91 | 1.22 | 95 | 1010.2 |
| 20260506144924 | 7 | 354 | 6.4 | 12.9 | 0.03 | 1.91 | 1.22 | 96 | 1010.0 |
| 20260506143923 | 7 | 292 | 1.6 | 6.4 | 0.03 | 1.91 | 1.22 | 96 | 1009.6 |
| 20260506142924 | 6 | 342 | 3.2 | 6.4 | 0.03 | 1.91 | 1.22 | 95 | 1009.8 |
| 20260506141924 | 6 | 12 | 6.4 | 12.9 | 0.05 | 1.91 | 1.22 | 95 | 1009.8 |
| 20260506140923 | 7 | 307 | 3.2 | 9.7 | 0.05 | 1.91 | 1.22 | 96 | 1009.8 |
| 20260506135924 | 6 | 5 | 4.8 | 6.4 | 0.03 | 1.88 | 1.19 | 95 | 1009.8 |
| 20260506134923 | 6 | 337 | 1.6 | 3.2 | 0.03 | 1.88 | 1.19 | 95 | 1010.2 |
| 20260506132924 | 6 | 335 | 1.6 | 6.4 | 0.03 | 1.88 | 1.19 | 95 | 1010.1 |
| 20260506132023 | 6 | 1 | 1.6 | 4.8 | 0.00 | 1.85 | 1.17 | 96 | 1010.2 |
| 20260506131025 | 6 | 346 | 3.2 | 4.8 | 0.03 | 1.85 | 1.17 | 95 | 1010.2 |
| 20260506130024 | 6 | 67 | 1.6 | 3.2 | 0.03 | 1.85 | 1.17 | 95 | 1010.2 |
| 20260506125123 | 6 | 346 | 3.2 | 6.4 | 0.03 | 1.85 | 1.17 | 95 | 1009.8 |
| 20260506124125 | 6 | 341 | 1.6 | 6.4 | 0.05 | 1.85 | 1.17 | 96 | 1010.2 |
| 20260506122224 | 6 | 344 | 4.8 | 9.7 | 0.05 | 1.85 | 1.17 | 95 | 1010.2 |
| 20260506120323 | 6 | 315 | 0.0 | 0.0 | 0.08 | 1.83 | 1.14 | 95 | 1009.8 |
| 20260506115324 | 7 | 46 | 0.0 | 4.8 | 0.13 | 1.83 | 1.14 | 96 | 1009.8 |
| 20260506114325 | 7 | 76 | 0.0 | 3.2 | 0.18 | 1.83 | 1.12 | 96 | 1010.2 |
| 20260506113423 | 6 | 8 | 4.8 | 9.7 | 0.20 | 1.80 | 1.12 | 95 | 1009.8 |
| 20260506112423 | 7 | 338 | 1.6 | 4.8 | 0.28 | 1.80 | 1.12 | 96 | 1009.8 |
| 20260506111425 | 7 | 22 | 0.0 | 6.4 | 0.28 | 1.78 | 1.09 | 96 | 1010.2 |
| 20260506105523 | 6 | 315 | 0.0 | 3.2 | 0.23 | 1.70 | 1.02 | 95 | 1010.5 |
| 20260506104523 | 6 | 349 | 4.8 | 8.0 | 0.20 | 1.65 | 0.97 | 95 | 1010.5 |
| 20260506103524 | 6 | 85 | 3.2 | 4.8 | 0.15 | 1.60 | 0.91 | 95 | 1010.5 |
| 20260506102525 | 7 | 335 | 1.6 | 4.8 | 0.13 | 1.55 | 0.84 | 96 | 1010.5 |
| 20260506101623 | 7 | 40 | 0.0 | 3.2 | 0.10 | 1.50 | 0.81 | 96 | 1010.2 |
| 20260506100625 | 6 | 22 | 0.0 | 3.2 | 0.08 | 1.45 | 0.79 | 95 | 1009.8 |
| 20260506095625 | 7 | 354 | 0.0 | 3.2 | 0.13 | 1.45 | 0.79 | 96 | 1009.8 |
| 20260506094626 | 7 | 11 | 1.6 | 4.8 | 0.10 | 1.45 | 0.76 | 96 | 1009.8 |
| 20260506093723 | 7 | 16 | 1.6 | 6.4 | 0.13 | 1.45 | 0.76 | 95 | 1009.8 |
| 20260506092724 | 7 | 360 | 0.0 | 3.2 | 0.13 | 1.42 | 0.71 | 95 | 1010.2 |
| 20260506091724 | 6 | 90 | 0.0 | 0.0 | 0.13 | 1.40 | 0.71 | 94 | 1010.5 |
| 20260506090725 | 6 | 90 | 0.0 | 0.0 | 0.15 | 1.40 | 0.71 | 94 | 1010.5 |
| 20260506085823 | 6 | 69 | 0.0 | 3.2 | 0.10 | 1.35 | 0.66 | 94 | 1010.5 |
| 20260506084824 | 6 | 26 | 0.0 | 0.0 | 0.15 | 1.35 | 0.66 | 94 | 1010.5 |
| 20260506083824 | 7 | 67 | 0.0 | 0.0 | 0.15 | 1.32 | 0.64 | 95 | 1010.5 |
| 20260506082826 | 6 | 67 | 0.0 | 0.0 | 0.15 | 1.30 | 0.61 | 94 | 1010.5 |
| 20260506080924 | 7 | 341 | 0.0 | 0.0 | 0.20 | 1.24 | 0.56 | 95 | 1010.5 |
| 20260506073024 | 7 | 59 | 0.0 | 3.2 | 0.23 | 1.14 | 0.46 | 95 | 1010.9 |
| 20260506072124 | 7 | 45 | 0.0 | 0.0 | 0.20 | 1.09 | 0.41 | 95 | 1011.0 |
| 20260506071125 | 7 | 47 | 1.6 | 6.4 | 0.20 | 1.07 | 0.38 | 95 | 1010.7 |
| 20260506062124 | 7 | 67 | 0.0 | 0.0 | 0.10 | 0.89 | 0.20 | 94 | 1010.9 |
| 20260506061224 | 7 | 69 | 1.6 | 4.8 | 0.08 | 0.86 | 0.18 | 95 | 1011.5 |
| 20260506060224 | 7 | 337 | 0.0 | 0.0 | 0.08 | 0.86 | 0.18 | 94 | 1010.5 |
| 20260506051324 | 8 | 27 | 3.2 | 6.4 | 0.10 | 0.79 | 0.10 | 95 | 1011.5 |
| 20260506050423 | 7 | 20 | 1.6 | 6.4 | 0.10 | 0.79 | 0.10 | 94 | 1011.5 |
| 20260506044423 | 7 | 67 | 0.0 | 0.0 | 0.08 | 0.71 | 0.05 | 95 | 1012.2 |
| 20260506043423 | 8 | 109 | 0.0 | 3.2 | 0.08 | 0.71 | 0.03 | 95 | 1012.2 |
| 20260506042424 | 8 | 344 | 3.2 | 6.4 | 0.05 | 0.71 | 0.03 | 95 | 1011.7 |
| 20260506040424 | 8 | 11 | 3.2 | 6.4 | 0.10 | 0.69 | 0.00 | 94 | 1011.5 |
| 20260506035509 | 8 | 308 | 1.6 | 3.2 | 0.13 | 0.69 | 0.69 | 94 | 1011.5 |
| 20260506034512 | 8 | 333 | 1.6 | 4.8 | 0.10 | 0.66 | 0.66 | 93 | 1011.9 |
| 20260506033608 | 8 | 324 | 0.0 | 1.6 | 0.13 | 0.66 | 0.66 | 94 | 1011.9 |
| 20260506032611 | 7 | 323 | 1.6 | 3.2 | 0.13 | 0.66 | 0.66 | 93 | 1011.5 |
| 20260506031710 | 8 | 152 | 0.0 | 0.0 | 0.13 | 0.64 | 0.64 | 94 | 1011.7 |
| 20260506025710 | 7 | 225 | 0.0 | 0.0 | 0.10 | 0.56 | 0.56 | 92 | 1011.9 |
| 20260506024808 | 8 | 225 | 0.0 | 0.0 | 0.13 | 0.56 | 0.56 | 93 | 1011.9 |
| 20260506023809 | 8 | 225 | 1.6 | 3.2 | 0.10 | 0.53 | 0.53 | 93 | 1012.2 |
| 20260506022810 | 7 | 225 | 3.2 | 4.8 | 0.15 | 0.53 | 0.53 | 92 | 1012.2 |
| 20260506021810 | 8 | 286 | 0.0 | 3.2 | 0.15 | 0.51 | 0.51 | 93 | 1011.9 |